SCP
1 1 1 0 0 1 1 1 1 1 1 1 1 1 1 1 1 1 1 2 2 2 1 1 1 1 1 1 0 0 0 0 0 0 0 0 0 0 0 0 0 0 0
1 1 1 0 0 0 1 1 1 1 1 1 1 1 1 1 1 1 1 1 1 1 1 1 1 1 1 0 0 0 0 0 0 0 0 0 0 0 0 0 0 0 0
1 1 1 0 0 0 1 0 0 1 1 1 1 1 1 1 1 1 1 1 1 1 1 1 1 1 1 0 0 0 0 0 0 0 0 0 0 0 0 0 0 0 0
1 1 0 0 0 1 1 1 1 1 1 1 1 1 1 1 2 2 2 1 1 1 1 1 1 1 0 0 0 0 0 0 0 0 0 0 0 0 0 0 0 0 0
1 1 0 0 0 1 1 1 1 1 1 1 1 1 1 1 1 2 2 1 1 1 0 0 0 0 0 0 0 0 0 0 0 0 0 0 0 0 0 0 0 0 0
0 0 0 0 0 0 0 0 0 1 1 1 1 1 1 1 1 1 1 1 1 0 0 0 0 0 0 0 0 0 0 0 0 0 0 0 0 0 0 0 0 0 0
0 0 0 0 0 0 0 0 0 0 1 1 1 1 1 1 1 1 1 1 0 0 0 0 0 0 0 0 0 0 0 0 0 0 0 0 0 0 0 0 0 0 0
0 0 0 0 0 0 0 0 0 0 0 0 1 1 1 1 1 1 0 0 0 0 0 0 0 0 0 0 0 0 0 0 0 0 0 0 0 0 0 0 0 0 0
0 0 0 0 0 0 0 0 0 0 0 0 0 0 0 0 0 0 0 0 0 0 0 0 0 0 0 0 0 0 0 0 0 0 0 0 0 0 0 0 0 0 0
0 0 0 0 0 0 0 0 0 0 0 0 0 0 0 0 0 0 0 0 0 0 0 0 0 0 0 0 0 0 0 0 0 0 0 0 0 0 0 0 0 0 0
0 0 0 0 0 0 0 0 0 0 0 0 0 0 0 0 0 0 0 0 0 0 0 0 0 0 0 0 0 1 1 0 0 0 0 0 0 0 0 0 0 0 0
0 0 0 0 0 0 0 0 0 0 0 0 0 0 0 0 0 0 0 0 0 0 0 0 0 0 0 0 0 1 0 0 0 0 0 0 0 0 0 0 0 0 0
1 0 0 0 0 0 0 0 0 0 0 0 0 0 0 0 0 0 1 1 0 0 0 0 0 0 0 0 0 0 0 0 0 0 0 0 0 0 0 0 0 0 0
1 1 0 0 0 0 0 0 0 0 0 0 0 0 0 0 0 0 1 1 0 0 0 0 0 0 0 0 0 0 0 0 0 0 0 0 0 0 0 0 0 0 0
1 1 0 0 0 0 0 0 0 0 0 0 0 0 0 0 0 0 0 0 0 0 0 0 0 0 0 0 0 0 0 0 0 0 0 0 0 0 0 0 0 0 0
1 1 1 1 0 0 0 0 0 0 0 0 0 0 0 0 0 0 0 0 0 0 0 0 0 0 0 0 0 0 0 0 0 0 0 0 0 0 0 0 0 0 0
1 1 1 1 1 1 0 0 0 0 0 0 0 1 1 0 0 0 0 0 0 0 0 0 0 0 0 0 0 0 0 0 0 0 0 0 0 0 0 0 0 0 0
1 1 1 1 1 1 1 1 0 0 0 0 1 1 1 1 1 0 0 0 1 1 0 0 0 0 0 0 0 0 0 0 0 0 0 0 0 0 0 0 0 0 0
2 2 2 2 1 1 1 1 1 1 1 1 1 1 1 1 1 1 1 1 1 1 1 1 1 1 1 0 0 0 0 0 0 0 0 0 0 0 0 0 0 0 0
2 3 3 2 2 1 1 1 1 1 1 1 1 2 2 2 2 1 1 1 1 1 1 1 1 1 1 1 0 0 0 0 0 0 0 0 0 0 0 0 0 0 0
3 3 3 2 2 2 2 2 2 2 2 2 2 2 2 2 2 2 1 1 1 1 1 1 1 1 1 1 0 0 0 0 0 0 0 0 0 0 0 0 0 0 0
3 3 3 3 3 3 3 3 3 3 3 3 3 3 3 3 3 2 2 2 2 2 2 1 1 1 1 1 1 1 0 0 0 0 1 1 0 0 0 0 0 0 0
3 3 3 3 4 4 4 4 4 4 4 3 3 3 3 3 3 3 3 2 2 2 2 2 2 1 1 1 1 1 1 1 0 1 1 1 1 1 0 0 0 1 0
3 3 3 3 4 4 4 4 4 4 4 4 4 4 4 4 4 4 3 3 2 2 2 2 2 2 2 1 1 1 1 1 1 1 1 1 1 1 1 0 0 1 1
3 3 3 4 4 4 4 4 4 4 5 5 5 5 5 5 4 3 3 3 2 2 2 2 2 2 2 2 1 1 1 1 1 1 1 1 1 0 1 1 1 1 1
3 3 3 4 4 4 4 4 4 4 5 5 6 7 6 5 4 3 2 2 2 2 2 2 2 2 2 2 2 2 2 2 2 2 1 1 1 0 1 1 1 1 1
Wind_Speed
9 12 12 13 14 15 15 15 16 16 17 17 17 17 17 17 18 18 18 18 17 17 17 17 17 16 16 16 16 15 15 15 15 15 15 15 14 14 13 13 12 13 15
12 14 12 12 14 14 15 15 16 16 16 16 16 16 16 17 17 17 17 17 17 17 17 17 16 16 16 16 15 15 15 15 14 14 15 15 14 13 11 11 11 12 14
13 14 13 12 13 14 14 15 16 16 16 16 16 16 16 16 16 17 16 16 16 17 17 17 16 16 15 16 15 15 14 14 13 11 10 12 13 13 13 14 14 14 13
13 13 13 13 13 13 14 14 15 15 16 15 16 16 16 16 16 16 16 16 16 16 16 16 16 15 15 15 15 14 13 12 9 7 7 11 12 13 13 14 14 13 13
13 13 14 13 13 13 13 13 14 14 15 15 15 15 15 15 15 15 15 15 15 15 16 16 15 15 14 14 14 13 12 10 6 6 10 11 12 13 13 13 14 13 13
13 14 15 12 13 13 13 13 13 13 14 14 14 14 14 15 15 15 15 14 14 15 15 15 14 14 14 13 13 12 10 7 6 10 9 10 11 12 13 13 13 13 13
13 14 15 12 13 12 12 13 13 13 13 14 13 13 14 14 14 14 14 14 14 14 14 13 13 13 13 12 12 11 8 2 7 10 9 10 12 11 12 12 12 12 12
13 14 15 13 12 12 12 12 12 12 12 12 13 13 13 13 13 13 13 13 13 13 13 12 12 12 12 11 11 9 6 2 8 9 10 11 11 10 11 11 11 11 11
11 12 13 13 12 12 11 11 12 11 11 12 12 12 12 12 12 12 12 12 12 12 12 11 11 11 11 10 10 8 5 2 6 7 9 9 10 10 11 11 10 10 10
10 10 11 11 10 11 12 11 11 11 11 11 11 11 11 12 12 11 11 11 11 11 11 11 11 11 10 10 9 7 5 4 6 8 7 10 10 10 10 10 10 9 9
9 8 9 10 9 8 10 12 11 11 10 10 10 10 8 8 9 8 12 11 10 10 10 9 9 10 9 10 8 6 5 3 6 6 7 11 9 9 9 9 9 9 9
11 10 8 9 9 8 7 8 6 7 8 5 6 7 5 5 5 8 11 9 9 9 9 8 7 8 6 7 8 7 3 5 5 5 8 9 8 8 8 8 8 8 9
11 10 9 8 7 7 6 6 4 4 5 6 6 5 4 5 5 5 5 7 7 7 6 7 6 3 3 4 2 3 4 3 3 4 9 8 7 7 7 7 8 8 8
12 11 10 9 7 5 5 5 5 4 4 4 6 5 5 3 3 3 2 3 4 3 2 2 2 3 3 4 3 3 3 2 3 4 8 8 6 6 6 7 7 7 7
11 11 9 8 8 7 5 4 4 4 4 5 4 4 3 3 3 4 2 2 2 3 3 2 2 3 3 3 3 3 3 3 3 3 7 8 6 5 5 6 6 7 7
12 12 10 10 9 7 6 4 3 4 3 4 4 5 4 3 3 3 3 2 2 2 2 1 2 2 2 2 2 3 2 3 3 3 5 8 7 6 5 5 6 6 6
12 11 11 10 9 8 7 6 4 4 5 4 4 5 4 3 3 2 2 2 2 3 3 1 2 2 2 2 2 2 2 2 3 2 2 3 6 8 7 6 6 6 6
11 11 11 9 10 9 7 5 4 4 4 4 4 5 5 4 4 3 2 2 2 2 3 2 2 1 1 1 1 1 2 2 3 3 3 3 2 4 8 8 6 6 6
12 11 11 10 10 9 8 6 5 4 4 4 4 4 5 5 5 4 2 1 3 2 2 2 2 1 1 1 2 2 2 2 3 3 3 4 3 2 3 9 9 7 7
12 12 11 11 10 9 8 6 5 5 5 5 4 4 5 5 5 4 3 3 4 3 2 1 1 1 2 2 2 1 2 2 3 3 4 4 4 5 4 4 7 8 9
13 13 13 12 11 9 7 7 7 7 6 5 5 5 6 5 5 5 3 4 4 3 3 3 3 4 3 2 2 3 3 5 4 4 4 4 5 5 4 4 4 4 7
15 14 14 13 12 11 8 7 5 5 5 5 4 5 6 6 6 6 5 5 5 3 4 4 4 3 3 3 3 3 3 3 5 5 4 5 5 5 6 7 5 5 5
16 15 13 14 13 12 10 8 6 5 5 5 6 6 6 7 7 5 5 6 4 5 4 5 5 5 4 4 4 3 3 1 1 3 4 4 4 4 5 5 7 6 7
16 15 14 14 13 12 12 10 10 8 8 7 5 5 7 7 7 7 7 6 5 5 4 6 5 4 5 5 3 4 4 4 4 2 3 4 5 6 6 5 5 6 7
16 15 14 14 14 13 13 11 11 10 8 6 6 6 6 6 7 7 7 6 6 5 5 5 4 5 5 5 5 4 4 4 6 5 3 3 3 5 5 6 5 5 6
15 15 14 14 14 14 14 13 13 12 10 8 8 7 7 6 6 8 7 6 7 6 5 6 6 7 6 5 5 5 4 4 4 4 5 5 4 3 4 4 5 5 6
Wind_Direction
111 102 97 96 95 94 93 94 99 102 100 99 99 99 99 98 99 99 99 99 98 98 99 99 98 98 98 99 99 100 101 102 102 103 103 104 106 107 109 115 119 109 112
114 108 102 99 99 96 95 95 99 102 102 101 100 100 100 99 99 99 98 98 98 99 99 97 96 94 95 97 99 101 102 103 103 107 112 109 105 104 104 99 90 103 113
117 115 114 101 100 98 96 97 99 101 102 102 101 101 101 99 99 99 97 96 97 98 99 97 95 94 95 98 99 101 103 104 108 120 135 115 106 101 99 98 101 109 110
120 120 111 107 104 101 98 97 99 100 101 102 102 101 100 99 98 98 97 96 97 98 99 98 98 98 98 99 99 101 103 106 117 155 119 103 105 102 103 104 106 108 111
121 117 111 113 108 105 101 98 97 100 102 103 102 101 100 98 98 97 97 98 98 99 100 100 100 100 100 101 101 103 106 113 139 120 94 99 100 104 105 106 107 109 112
127 121 115 117 113 109 106 103 101 101 104 103 101 100 99 98 98 98 97 97 98 99 99 100 101 101 102 103 105 106 111 137 155 97 99 101 101 106 106 106 108 109 109
128 122 121 120 116 113 111 108 105 102 102 101 101 101 100 100 99 99 99 99 100 101 100 100 101 101 103 104 106 107 108 126 99 98 98 95 97 105 105 105 107 109 109
132 127 123 123 120 117 113 111 108 106 104 103 102 101 100 100 100 99 100 101 102 102 101 102 102 103 103 105 107 108 116 172 106 101 98 97 100 108 108 107 106 109 110
136 132 135 136 131 123 116 115 113 111 109 107 104 103 103 102 101 102 102 103 103 102 102 101 103 104 106 107 110 110 101 358 101 101 101 99 107 111 111 110 110 111 113
140 140 139 135 136 141 133 123 118 116 114 111 108 109 111 113 112 115 116 104 103 103 102 102 104 106 108 111 113 119 145 209 101 103 99 103 113 115 115 115 113 113 117
148 147 145 139 145 144 134 130 134 127 125 130 125 128 152 138 126 133 97 105 105 104 104 105 108 113 122 122 123 148 192 123 99 89 89 103 118 119 119 119 118 117 118
159 158 155 148 152 147 136 138 147 143 139 143 126 137 131 103 104 106 107 107 108 112 117 114 126 157 185 134 142 189 144 108 109 107 99 111 121 125 124 124 123 123 123
163 164 159 154 160 151 145 150 143 135 137 138 128 132 121 130 131 130 136 139 138 149 137 140 171 143 98 83 111 109 91 101 100 103 109 121 128 132 132 132 132 130 131
170 169 164 159 161 164 154 145 156 151 150 141 136 158 140 131 130 120 126 128 139 127 111 115 107 96 89 100 97 94 106 102 99 100 113 130 137 139 139 141 142 141 143
174 172 167 168 165 166 162 172 160 152 148 138 144 145 149 150 141 125 118 114 114 124 143 139 108 115 118 117 112 108 105 99 108 118 120 139 150 155 153 152 152 153 155
179 176 171 176 170 172 174 176 166 162 149 158 156 149 172 155 132 138 149 143 143 138 92 112 122 138 127 111 120 120 126 125 124 140 134 148 164 170 172 169 168 169 172
182 176 176 178 175 179 183 184 181 176 172 170 156 161 179 174 152 173 158 172 153 141 144 162 134 143 160 155 148 153 145 140 134 142 144 155 161 171 180 185 186 186 191
182 178 179 182 179 182 186 192 190 188 175 176 174 170 182 181 183 201 194 172 165 176 171 168 185 168 151 168 149 188 140 155 167 175 172 179 179 168 174 184 195 201 205
184 179 180 185 182 185 185 188 195 189 196 194 189 185 182 194 199 217 215 172 200 197 199 218 147 208 190 203 190 190 196 176 176 194 179 183 184 201 177 165 188 202 210
185 183 183 184 185 185 186 188 198 200 198 200 199 195 199 200 205 222 207 205 220 204 205 217 194 230 241 244 255 194 228 204 203 197 213 194 191 200 206 183 186 190 201
187 187 187 189 184 188 190 195 196 197 199 200 203 201 208 212 204 221 226 199 228 222 224 214 220 205 225 234 245 237 227 223 212 213 224 223 202 203 206 209 221 205 185
190 191 190 192 188 194 193 199 202 206 206 205 212 201 212 216 216 213 221 221 217 220 220 224 230 246 237 222 254 260 242 206 213 210 207 217 225 214 212 210 213 216 236
193 194 195 194 191 196 193 194 192 194 213 206 206 205 211 216 220 233 225 235 226 231 220 223 220 231 242 236 244 269 286 290 231 188 215 216 218 230 231 216 216 212 221
196 194 196 194 194 195 196 202 200 204 209 211 211 206 204 211 219 221 227 230 235 236 224 231 220 234 243 246 226 241 268 307 295 255 210 202 209 223 236 240 225 211 217
196 194 194 193 196 197 200 201 207 217 219 214 211 209 215 210 219 223 224 227 230 237 233 244 234 239 238 246 247 244 241 242 252 270 274 254 225 224 218 225 230 228 219
195 195 194 192 196 197 200 204 210 218 222 222 217 212 214 212 216 218 223 225 230 236 231 232 234 230 243 252 257 255 252 253 257 261 271 266 253 234 229 233 236 228 225